默认 日期 大小 文件数 浏览量 最新下载 xml
3 in磁力链接相关资源由用户搜索指令自动获取,结果来源于网络,本站不存储任何资料,亦不承担任何责任,请于24小时内删除,搜索到12442个磁力,显示前4000条数据,用时62ms。
    {"How to Change Your Mind for Good in 21 Days.pdf": 1841156}
创建时间: 2018-12-18 08:49:10 大小:1.76 MB 文件数量:1 热度:9 最近下载:2024-12-29 14:57:03
    {"Kara_no_Naka_no_Kotori_2_Yuuki_Ren_(cen).avi": 241532370, "Kara_no_Naka_no_Kotori_1_Maiden_of_Desire.mkv": 274339491, "Kara_no_Naka_no_Kotori_2_Yuuki_Ren_(cen).eng.ass": 18418, "Kara_no_Naka_no_Kotori_3_Maiden_of_Decadence.mkv": 266186600, " ...
创建时间: 2018-12-18 09:27:33 大小:1.27 GB 文件数量:6 热度:16 最近下载:2025-04-03 23:15:01
    {"The.Man.In.The.High.Castle.S03E01.WEBRip. ... .LostFilm.avi": 852692992, "The.Man.In.The.High.Castle.S03E02.WEBRip ... .LostFilm.avi": 641556480, "The.Man.In.The.High.Castle.S03E03.WEBRip ... .LostFilm.avi": 665155584, "The.Man.In.The.High.Castle.S03E04.WEBRip ...
创建时间: 2018-12-18 11:09:56 大小:2.62 GB 文件数量:4 热度:4 最近下载:2022-04-23 06:14:17
    {"Men.in.Black.3.3D.2012.1080p.BluRay.Half.OU.DTS.x264.mkv": 17446947211, "Men.in.Black.3.3D.2012.1080p.BluRay.Half.OU.DTS.x264.nfo": 4601}
创建时间: 2018-12-18 11:18:01 大小:16.25 GB 文件数量:2 热度:12 最近下载:2025-08-06 15:19:04
    {"Big Babies In Budapest 1": {"Title.txt": ... CoverFront.jpg": 58916, "Big Babies In Budapest 1.avi": 817651922, " ... .jpg": 311581}, "Big Babies in Budapest 3": {"Title.txt": 626, ... Big Babies in Budapest 3.avi": 1030660094, "Big Babies in Budapest 3 screenshots. ...
创建时间: 2018-12-18 12:19:01 大小:1.72 GB 文件数量:10 热度:8 最近下载:2025-05-20 23:34:02
    {"Сover.jpg": 265283, "16-capa-capacity.mp3": 14203414, "02-jasmon-delight.mp3": 12010173, "20-michael_e-amanda.mp3": 14307904, "19-eskadet-a_bientot.mp3": 12236916, "14-mich_gerber-harmatan.mp3": 15813602, "08-marga_sol-violet_colors.mp3": 12112573, "18- ...
创建时间: 2018-12-18 22:22:25 大小:246.96 MB 文件数量:21 热度:7 最近下载:2025-10-12 23:36:02
    {"[www.Cpasbien.com] mib3.SLaP.avi": 1438243406, "Films DVDRIP sur www.Cpasbien.com.html": 464, "Films et series sur www.CPASBIEN.com .txt": 58, "Les derniers Film et serie sur Cpasbien.com - cliquez ici !.html": 464}
创建时间: 2018-12-18 22:25:31 大小:1.34 GB 文件数量:4 热度:9 最近下载:2025-05-31 15:35:01
    {"www.digtorrent.org.txt": 391, "like us on facebook.txt": 43, "download my latest releases.txt": 110, "[18+]Emmanuelle In Space 3 - A Lesson In Love (1994) DVDRip.aaaevilacharya.mkv": 420658639}
创建时间: 2018-12-18 22:32:58 大小:401.17 MB 文件数量:4 热度:23 最近下载:2025-05-14 02:27:01
    {"137094 - Elizabeth Gallery 48 hairy lesbians": {"eli034JAT_137094001.jpg": 320319, "eli034JAT_137094002.jpg": 325783, "eli034JAT_137094003.jpg": 328515, "eli034JAT_137094004.jpg": 328473, "eli034JAT_137094005.jpg": 322695, "eli034JAT_137094006.jpg": ...
创建时间: 2018-12-18 22:39:31 大小:76.12 MB 文件数量:310 热度:10 最近下载:2025-08-02 04:33:01
    {"Covers": {"divxfactory-popim3-back.jpg": 268417}, "Pop.In.Me.3.DVDRip.XxX1.avi": 733667328, "Pop.In.Me.3.DVDRip.XxX2.avi": 727394304}
创建时间: 2018-12-18 22:39:48 大小:1.36 GB 文件数量:3 热度:7 最近下载:2025-07-15 16:41:01
    ... AlexFilm.mkv": 3398541803, "The.Man.in.the.High.Castle.s03e02.WEBRip ... AlexFilm.mkv": 2296004287, "The.Man.in.the.High.Castle.s03e03.WEBRip ... .mkv": 2375491303, "The.Man.in.the.High.Castle.s03e04.WEBRip ... .mkv": 2410295908, "The.Man.in.the.High.Castle.s03e05.WEBRip ...
创建时间: 2018-12-18 22:48:08 大小:16.21 GB 文件数量:7 热度:5 最近下载:2022-04-23 06:18:40
    {"The.Man.in.the.High.Castle.s03e01.WEBRip.720p.Rus.Eng.AlexFilm.mkv": 1311278168, "The.Man.in.the.High.Castle.s03e02.WEBRip.720p.Rus.Eng.AlexFilm.mkv": 940079858}
创建时间: 2018-12-18 22:50:26 大小:2.1 GB 文件数量:2 热度:5 最近下载:2022-04-23 06:23:25
    ... .m4a": 3932767, "01 The Ring In Return.m4a": 2027586, "11 The ... .m4a": 3762237, "03 Cuts Marked In The March Of Men.m4a ... Al The.m4a": 4065591, "02 In Keeping Secrets Of Silent Eart ... ": 7876430, "04 Three Evils (Embodied In Love And.m4a": 5020108}
创建时间: 2018-12-18 22:51:44 大小:63.52 MB 文件数量:12 热度:6 最近下载:2025-03-20 14:46:02
    ... Implementation of Classes and Objects in Python.mp4": 15067213}, "[FreeCourseLab. ... Protected and Private - Naming Conventions in Python.mp4": 23449694, "013 Understanding ... and Encapsulation.mp4": 25153025, "012 3.Abstraction-and-Encapsulation.pdf": 231433 ...
创建时间: 2018-12-18 23:01:07 大小:458.56 MB 文件数量:42 热度:6 最近下载:2025-03-12 11:12:01
    {"Volume 01": {"VIDEO_TS.BUP": 14336, "VIDEO_TS.IFO": 14336, "VIDEO_TS.VOB": 1318912, "VTS_01_0.BUP": 88064, "VTS_01_0.IFO": 88064, "VTS_01_1.VOB": 1073739776, "VTS_01_2.VOB": 1073739776, "VTS_01_3.VOB": 1073739776, "VTS_01_4.VOB": 1073739776, "VTS_01_5. ...
创建时间: 2018-12-18 23:01:46 大小:23.18 GB 文件数量:39 热度:13 最近下载:2025-06-09 19:03:02
    {"Mixed_In_Key_v963_OS_X.zip": 58079489}
创建时间: 2018-12-18 23:18:45 大小:55.39 MB 文件数量:1 热度:6 最近下载:2022-04-23 06:34:03
    {"blackmailed.17.12.01.alexis.fawx.and.cory.chase.milfs.and.stepson.in.taboo.3-way[N1C].mp4": 3634628770}
创建时间: 2018-12-18 23:20:28 大小:3.39 GB 文件数量:1 热度:52 最近下载:2025-08-30 14:15:03
    {"RARBG.txt": 30, "pornstarplatinum.17.03.04.ava.devine.in.3.way.clit.check.mp4": 2822106913, "pornstarplatinum.17.03.04.ava.devine.in.3.way.clit.check.nfo": 5258}
创建时间: 2018-12-18 23:27:19 大小:2.63 GB 文件数量:3 热度:33 最近下载:2025-08-31 18:53:03
    ... Mercy.flac": 34872547, "02 - Power In The Blood.flac": 31731557, "10 ... , "Alabama 3 - Power In The Blood.log": 5958, "Alabama 3 - Power In The Blood ... The Sun.flac": 25934938, "Power In The Blood (noncompilant).cue": 2151 ...
创建时间: 2018-12-18 23:40:37 大小:320.99 MB 文件数量:23 热度:9 最近下载:2025-02-19 07:07:01
    {"Mixed_In_Key_v963_OS_X.zip": 52501743}
创建时间: 2018-12-18 23:50:24 大小:50.07 MB 文件数量:1 热度:6 最近下载:2022-04-23 06:23:25